GFSSE_sfc_thetae_336.txt.gz
Theta_e
330 336 344 346 348 349 348 347 347 347 347 347 347 347 347 346 344 343 342 340 340 339 338 337 336 335 334 334 334 335 337 334 335 339 341 343 344 343 341 341 342 340 345
334 340 343 345 347 347 348 347 347 346 346 345 345 345 344 343 341 340 337 336 335 334 333 331 330 329 328 328 329 331 332 329 336 339 341 342 344 344 344 343 342 338 341
338 340 340 343 346 345 345 345 345 344 343 342 341 341 339 338 337 334 333 331 330 330 329 328 326 325 324 324 325 327 327 325 331 333 336 335 339 344 344 342 342 342 342
338 340 341 341 344 344 344 343 342 341 340 339 338 336 334 333 331 330 328 327 326 326 326 325 323 322 322 322 322 323 323 320 322 323 320 323 334 339 340 339 340 339 340
336 339 339 341 343 343 342 341 340 339 337 336 333 332 330 329 327 326 325 324 324 324 323 323 322 321 320 321 320 319 317 316 314 310 309 315 319 331 334 333 332 333 334
331 335 338 340 341 340 339 338 337 335 333 332 330 328 327 325 324 323 323 322 321 321 321 321 321 320 319 318 318 317 315 313 306 302 304 308 312 327 328 328 328 328 329
326 330 332 336 336 337 335 335 333 331 329 328 326 324 323 322 321 320 319 319 319 319 319 319 317 317 316 316 315 314 313 308 296 297 302 304 309 322 324 324 324 324 325
321 322 324 325 330 332 331 330 329 327 325 323 321 320 319 318 317 317 317 317 318 318 317 316 315 314 314 313 312 311 309 306 296 296 300 302 315 320 322 322 322 322 323
318 317 317 318 320 323 325 326 324 322 320 319 316 315 313 313 312 313 314 315 315 315 315 314 312 311 311 310 310 308 306 305 292 294 298 301 315 319 320 320 321 322 322
316 315 313 313 313 313 314 319 319 318 315 313 311 310 308 307 307 309 309 311 311 311 311 311 309 308 307 307 307 306 304 301 292 293 295 302 313 316 318 319 319 320 321
313 312 311 311 310 309 310 310 313 313 311 308 306 305 301 298 297 299 306 307 307 307 308 308 308 306 303 302 303 303 300 292 292 292 294 308 312 315 317 317 318 319 320
304 306 308 308 307 305 306 306 304 303 302 300 300 299 300 299 300 298 299 302 303 302 303 304 304 301 296 291 291 296 291 291 291 292 293 307 310 313 315 316 317 318 319
303 304 305 305 303 302 303 303 301 300 298 298 300 300 299 297 296 294 292 292 292 296 292 293 292 291 291 291 291 291 291 291 291 292 295 305 308 311 314 316 317 317 318
303 303 302 301 299 298 298 296 296 296 295 297 298 297 296 295 292 291 291 291 290 291 290 290 290 290 290 291 291 291 291 291 291 292 293 303 307 310 312 314 316 317 317
302 302 301 299 297 297 297 297 295 295 294 294 295 296 293 291 291 291 290 290 289 289 289 289 289 289 289 290 291 291 291 291 291 292 292 301 306 309 312 315 315 314 314
301 300 301 299 296 297 295 295 294 294 293 293 292 293 293 292 290 290 290 289 289 289 289 289 288 288 288 289 290 290 290 290 290 291 292 293 305 308 310 311 311 311 312
299 299 298 297 296 295 295 294 293 293 294 292 292 292 292 292 290 289 289 289 289 288 289 288 288 288 288 289 288 289 290 290 291 292 292 293 295 303 306 307 307 308 308
300 297 297 299 296 295 294 293 293 293 292 292 292 291 292 292 290 289 289 288 289 289 288 287 287 287 287 287 287 287 287 289 291 292 292 293 293 292 296 302 302 303 305
301 298 296 296 295 295 294 293 292 292 292 291 291 291 291 292 292 289 289 288 289 288 287 287 287 286 286 287 288 288 288 289 288 290 291 291 291 290 290 295 297 297 300
295 297 296 296 296 295 294 292 292 291 291 291 291 291 292 292 292 290 289 288 288 287 286 286 286 287 286 286 288 287 287 288 288 288 288 290 289 289 289 289 288 289 297
295 294 295 295 294 293 291 291 291 290 291 291 291 293 293 292 292 290 289 288 287 286 286 286 286 285 285 286 285 285 285 286 288 287 287 287 288 288 289 289 288 288 289
292 293 294 294 294 293 292 291 291 290 291 291 292 292 293 293 292 291 289 289 287 286 286 286 286 285 284 285 283 282 281 284 286 286 287 288 286 287 288 289 288 288 288
289 290 293 294 293 293 293 292 291 291 290 290 290 291 291 292 292 292 291 289 288 287 286 285 285 285 283 284 285 283 280 279 281 285 285 285 286 286 286 287 288 288 288
288 290 292 293 293 293 293 291 290 289 289 289 289 290 290 291 291 291 291 289 288 287 286 285 287 285 284 283 284 287 284 283 280 279 283 284 285 286 286 285 286 287 288
287 288 290 292 292 292 292 291 290 289 289 289 289 288 288 289 289 290 290 289 288 287 286 286 285 285 285 284 283 283 283 282 282 281 279 281 284 284 286 286 286 286 287
285 286 287 288 287 289 289 289 289 288 288 287 287 286 286 287 288 288 289 288 288 288 287 286 286 285 285 284 284 283 283 282 281 281 280 279 281 283 286 287 286 286 286

GFSSE_sfc_thetae_339.txt.gz
Theta_e
336 340 344 346 347 348 348 348 348 347 347 347 346 346 346 344 342 341 339 337 337 336 334 334 332 332 332 333 335 336 334 339 341 342 344 345 344 343 343 342 342 341 344
335 340 343 346 347 348 348 348 347 347 345 346 345 344 343 341 339 336 335 333 333 332 331 330 328 327 327 327 330 331 330 334 337 338 340 343 344 345 345 343 343 341 342
338 342 343 344 345 346 346 345 345 344 343 342 341 340 338 336 335 332 331 329 329 329 328 327 326 325 325 325 325 327 325 327 327 328 329 336 340 342 342 340 341 340 342
339 341 341 341 344 345 344 343 342 341 340 339 337 336 334 332 330 328 327 326 326 326 326 325 324 323 323 323 322 321 321 320 319 318 321 325 332 337 336 336 336 337 337
338 340 340 341 343 344 342 341 340 339 338 336 334 332 330 328 327 326 325 324 324 324 324 324 323 322 321 320 319 318 317 315 313 312 314 320 325 330 332 331 330 330 331
333 337 339 341 343 341 341 339 338 336 335 333 331 328 326 325 324 323 322 322 322 322 322 321 320 320 319 318 317 316 314 311 308 309 312 316 320 326 328 327 326 326 327
326 330 333 337 339 338 337 335 333 332 330 328 326 324 323 322 321 320 320 321 321 321 320 318 318 317 317 316 314 313 311 308 304 307 310 314 319 323 325 324 324 324 324
321 322 324 326 331 333 332 331 329 327 325 323 321 320 320 319 319 319 319 318 318 318 317 316 315 314 314 313 312 310 309 305 301 302 308 311 318 321 322 322 323 323 324
319 319 320 320 321 324 325 326 324 322 320 318 316 315 314 314 314 314 315 315 315 315 314 313 312 310 311 311 310 308 306 304 300 301 305 310 315 319 321 321 321 322 323
316 316 315 315 315 315 318 320 320 317 315 313 311 309 307 308 310 310 309 310 310 311 311 311 309 308 307 307 307 306 303 300 299 300 305 310 314 317 319 319 320 321 322
313 313 312 311 310 310 310 310 312 313 310 308 306 306 304 302 301 303 306 307 307 307 308 308 307 305 302 301 303 303 299 298 299 299 302 309 313 315 317 318 319 320 321
309 309 310 309 306 307 306 305 304 303 303 303 302 302 301 301 302 300 301 301 302 302 303 304 303 300 298 297 298 298 298 298 298 298 300 307 311 314 316 318 318 319 319
309 309 308 306 305 306 305 304 303 302 302 302 302 301 300 299 299 298 298 297 297 296 296 297 296 296 296 296 297 297 297 297 298 298 299 306 309 313 315 316 318 318 318
308 307 306 305 302 302 303 301 300 300 300 301 301 300 299 298 298 297 296 296 295 295 295 295 295 295 296 295 296 296 296 297 297 298 299 305 309 312 315 318 316 316 315
306 307 305 303 301 301 301 300 299 299 298 298 298 298 298 297 296 296 296 295 294 295 295 295 294 295 295 295 295 295 296 296 297 298 300 304 308 311 315 314 313 313 314
306 306 305 302 300 300 299 299 298 298 297 297 297 297 297 296 296 295 295 294 294 294 294 294 293 294 294 294 294 295 295 296 297 298 300 302 308 309 310 310 310 310 311
304 305 303 303 300 299 299 298 298 298 298 297 297 297 297 296 295 295 295 295 294 294 294 294 294 294 294 294 294 294 295 296 297 298 299 301 301 303 305 306 306 306 307
304 301 302 302 299 298 298 297 297 297 297 297 297 296 296 296 295 295 295 294 294 294 293 293 293 293 293 293 293 294 295 296 297 298 299 298 298 297 298 301 301 302 303
297 303 300 300 299 298 297 297 296 296 296 297 296 296 296 296 295 294 294 294 293 293 292 292 293 292 292 292 293 293 295 295 294 295 296 296 296 296 296 295 297 296 300
297 298 301 299 298 297 297 296 296 296 296 296 296 296 296 296 295 294 294 293 293 292 292 292 291 292 292 291 291 291 295 295 295 295 295 295 295 295 295 294 295 294 296
296 296 297 297 297 296 295 295 294 295 295 295 296 296 296 296 295 294 294 293 292 292 291 291 291 290 291 291 291 292 292 292 294 294 295 295 294 294 294 294 294 294 294
292 294 295 296 296 296 296 295 295 295 295 295 296 296 296 296 296 295 294 294 292 292 291 290 290 290 290 290 289 288 289 291 292 292 293 293 293 293 293 293 293 293 294
290 291 294 296 295 295 296 295 294 294 294 294 294 294 295 295 295 295 294 294 293 292 291 290 290 289 289 290 290 289 288 287 287 291 291 291 292 292 292 292 292 293 293
289 291 294 295 295 295 295 295 294 293 293 292 294 294 293 293 293 294 294 293 292 292 291 291 291 290 289 289 290 290 290 289 287 286 290 290 291 291 291 292 292 293 293
288 289 292 293 294 294 294 294 293 292 293 293 292 291 291 292 292 292 293 292 292 292 291 290 290 289 289 289 289 289 288 288 288 286 285 287 290 291 291 291 292 293 293
287 288 289 289 289 291 291 291 292 291 290 290 290 289 289 290 290 290 290 290 291 291 291 291 291 290 289 289 289 289 288 288 287 286 285 286 286 288 290 291 291 292 292

GFSSE_sfc_thetae_342.txt.gz
Theta_e
339 343 343 345 346 346 348 348 347 347 346 346 346 346 344 342 340 339 336 336 334 333 332 331 330 330 331 334 334 333 337 339 341 342 343 344 345 344 343 342 344 342 343
340 344 344 345 346 348 347 347 347 345 345 345 344 343 341 339 337 335 332 331 331 330 329 328 328 328 327 328 330 329 332 332 333 333 336 343 343 343 343 342 341 340 343
341 343 343 345 345 346 346 346 345 344 343 342 341 339 337 335 333 330 329 329 328 328 327 327 326 326 325 324 324 326 326 325 325 327 333 339 336 338 338 337 338 339 340
342 343 342 342 344 344 344 343 343 342 341 340 338 336 333 331 329 328 327 326 326 326 327 326 325 324 323 322 321 321 321 320 319 325 331 332 333 334 334 333 333 334 335
340 342 341 341 343 343 342 341 340 339 338 337 335 332 330 328 326 325 325 324 324 325 324 324 323 321 320 319 318 317 316 315 315 323 325 327 331 330 330 329 328 329 330
336 341 340 341 342 342 340 339 338 337 335 333 331 329 327 325 324 323 323 323 323 322 322 321 320 319 318 317 316 315 313 312 314 315 318 321 325 326 327 326 325 325 326
327 331 333 338 339 339 337 335 333 332 330 328 327 325 323 322 321 321 322 321 320 320 319 318 317 316 316 315 313 312 310 307 308 310 312 316 320 323 324 324 324 324 325
322 326 326 326 331 333 332 330 329 327 325 323 322 322 320 320 320 319 319 318 318 317 317 315 314 313 313 313 311 309 308 305 306 307 310 313 318 321 322 322 323 323 324
321 320 321 321 322 323 324 325 323 321 320 318 317 316 315 315 315 315 315 315 315 314 314 312 311 310 310 310 308 307 305 304 304 306 307 312 316 319 320 321 321 322 323
317 316 317 316 319 318 319 319 318 316 314 312 310 309 309 310 309 309 310 310 310 311 310 309 308 307 306 307 306 305 302 301 304 305 308 312 315 317 319 319 320 321 322
314 314 314 313 312 312 313 312 314 311 309 308 307 306 306 305 305 306 306 306 306 307 307 307 306 304 301 301 303 302 302 304 304 305 307 309 313 316 317 318 319 320 320
311 312 311 310 309 309 306 306 305 304 304 305 304 304 305 305 304 303 302 301 302 301 302 303 302 300 301 303 303 301 304 303 304 304 305 308 312 315 317 318 318 319 318
316 315 314 311 310 309 307 306 305 305 306 307 305 305 305 304 304 304 304 303 303 300 301 301 301 301 302 302 302 302 302 303 304 304 303 308 311 314 316 317 318 317 316
316 315 313 310 307 307 308 306 305 306 306 306 306 305 306 305 305 304 303 303 302 302 301 301 301 301 301 300 300 300 302 302 303 304 304 307 310 314 317 316 315 314 315
314 315 313 311 307 306 306 306 305 304 305 305 304 303 304 303 303 303 302 302 301 301 300 299 300 300 300 300 300 300 300 301 302 304 306 308 310 314 314 313 313 312 312
315 314 314 310 308 306 306 305 305 305 303 303 304 303 302 302 303 302 302 301 301 301 300 299 299 300 300 300 300 300 300 303 303 304 305 308 308 309 309 309 308 309 309
315 314 313 312 309 306 306 306 306 306 305 305 304 303 302 302 303 303 303 302 301 300 299 299 299 300 300 300 299 300 302 302 303 303 305 306 305 304 304 304 304 305 306
305 311 312 310 309 307 305 305 305 305 305 305 304 304 302 302 301 302 302 302 301 300 299 299 298 299 299 299 299 300 302 302 302 303 304 303 303 302 301 300 300 301 303
303 303 307 310 309 307 305 305 304 304 304 304 304 304 302 302 301 302 302 302 301 300 300 298 298 298 298 298 297 300 302 301 301 300 301 301 301 302 301 297 296 296 299
303 304 304 308 308 306 304 304 304 303 303 303 303 303 302 302 301 302 301 301 300 300 299 298 297 298 297 297 296 296 301 301 301 301 300 299 300 300 300 298 299 299 296
302 302 303 305 307 304 303 302 302 302 302 302 303 302 302 302 301 301 301 300 300 298 297 296 296 296 297 297 297 298 297 299 299 300 300 300 299 298 298 298 298 298 298
300 300 302 302 305 303 303 303 304 303 302 303 302 302 301 302 301 300 300 300 299 299 298 297 296 295 296 296 294 295 295 296 297 298 298 298 298 298 297 297 297 297 298
298 298 299 301 302 302 302 301 301 301 301 301 301 300 300 300 300 300 300 300 299 299 298 298 297 295 294 296 295 294 293 292 293 297 296 297 297 297 297 297 297 297 297
296 298 299 300 300 301 301 301 300 300 299 300 300 300 299 299 298 298 299 299 299 299 298 298 296 296 295 294 295 294 295 294 291 290 296 296 296 295 297 297 296 296 297
295 296 298 299 299 299 300 300 300 300 300 300 299 298 298 298 297 297 297 297 298 298 298 297 297 296 296 294 294 294 293 293 293 290 288 292 295 296 296 296 296 296 297
295 296 297 296 296 297 298 299 300 300 299 298 297 297 296 296 296 294 294 294 294 295 295 296 296 296 296 295 295 294 293 292 291 291 290 291 291 293 295 295 296 296 296

GFSSE_sfc_thetae_345.txt.gz
Theta_e
338 343 345 345 345 345 346 347 347 346 346 346 346 345 342 340 338 336 335 334 333 331 331 330 330 330 331 333 333 335 336 338 339 341 344 344 344 343 342 341 343 341 343
340 343 344 344 344 345 345 346 346 345 346 345 343 341 339 337 335 333 331 331 330 329 329 329 328 328 327 327 329 330 331 331 332 333 338 341 340 341 340 339 339 339 343
341 343 344 345 344 344 345 345 345 345 344 343 341 339 336 334 331 330 329 328 328 328 328 328 326 325 324 323 324 325 325 325 325 328 334 336 335 337 337 336 336 337 339
342 342 342 342 344 344 343 343 343 343 341 340 338 335 333 330 329 327 327 327 327 327 327 326 325 324 322 321 320 320 320 320 321 326 331 332 332 333 333 332 332 333 334
341 342 342 341 342 342 342 341 341 340 338 336 334 333 331 328 326 325 325 325 324 325 324 323 323 321 320 319 319 317 317 315 317 324 326 326 329 329 329 328 327 328 329
336 340 340 341 342 341 340 338 337 336 334 332 330 329 327 325 324 324 324 323 323 322 321 321 320 319 318 317 316 315 313 313 316 313 317 321 323 325 326 325 325 325 326
328 329 330 337 338 338 336 335 333 331 330 328 325 325 324 323 323 322 322 321 320 320 318 317 317 316 316 315 313 312 311 309 307 310 312 315 320 322 324 324 324 325 325
323 325 325 325 330 332 331 330 328 326 325 323 323 322 322 321 320 320 319 318 317 317 316 315 313 313 313 313 311 310 309 309 307 307 310 314 317 321 322 322 323 323 324
321 320 321 321 322 322 323 324 322 321 320 319 318 317 317 316 316 315 314 314 314 314 313 311 310 309 309 310 309 307 306 306 306 306 308 312 317 319 321 321 322 322 323
318 318 318 317 319 319 317 318 317 315 314 312 311 311 310 310 309 309 310 310 310 311 310 309 308 307 306 306 306 305 305 306 305 305 308 311 316 318 319 320 320 321 321
316 316 316 316 317 316 314 312 314 311 310 309 307 305 305 307 307 307 305 306 306 307 306 306 306 304 304 303 302 303 305 305 304 305 307 310 314 317 318 319 319 320 320
313 314 313 314 312 313 310 309 307 305 306 306 306 306 307 306 304 304 303 301 302 301 301 302 302 303 306 304 304 305 304 304 304 304 305 310 313 316 317 318 319 318 318
317 316 316 314 312 311 308 307 307 307 307 308 307 307 306 306 306 306 305 304 305 303 303 303 302 302 303 303 302 303 303 303 303 304 304 310 312 315 317 318 317 316 316
319 319 316 313 310 309 309 307 307 307 308 308 307 306 307 306 306 304 304 304 304 303 302 302 302 302 302 302 302 302 302 302 302 303 305 309 312 315 316 315 315 315 314
318 318 317 316 311 308 307 307 306 306 306 306 305 304 305 304 304 303 303 303 303 302 301 301 301 301 302 302 302 301 301 302 302 303 306 310 312 314 314 313 312 311 311
318 318 318 315 312 309 307 307 307 306 305 304 304 304 303 304 304 303 302 302 303 302 301 300 300 300 301 302 301 301 301 303 303 304 306 308 309 309 309 308 307 307 308
317 318 317 316 314 310 308 308 307 307 306 305 305 304 304 303 303 303 303 303 302 302 301 301 300 301 301 301 301 301 302 303 303 304 305 307 306 304 304 303 303 304 306
308 309 311 315 313 312 310 309 308 307 307 306 306 305 304 304 303 303 303 303 303 302 301 300 299 299 300 300 300 300 301 302 303 303 304 303 303 302 301 299 300 301 303
305 305 306 309 313 312 311 308 307 307 306 306 305 305 305 304 303 303 302 303 302 301 301 300 299 299 298 300 299 299 301 302 301 300 302 302 302 302 301 299 297 297 298
305 305 305 306 309 312 310 308 307 306 306 306 305 305 305 304 303 303 303 302 301 301 300 299 299 299 298 298 297 297 300 302 301 301 301 300 301 300 300 300 301 300 298
304 304 304 305 306 310 308 306 305 304 305 304 304 305 304 304 303 303 302 301 301 300 299 298 298 297 297 298 298 301 300 300 301 301 301 300 300 300 299 299 299 300 299
302 303 303 304 305 308 308 307 307 306 306 305 305 304 304 304 304 303 302 302 301 300 300 299 298 296 297 297 294 296 295 297 298 299 301 299 300 300 299 299 299 299 299
300 300 301 303 304 306 306 305 304 303 303 302 302 302 302 303 303 302 302 301 301 300 299 299 298 296 295 297 296 293 293 293 295 299 298 299 298 298 299 299 299 298 298
298 301 301 302 303 303 304 303 302 301 301 303 303 303 302 301 301 300 300 300 300 300 298 299 298 297 296 294 297 295 296 294 290 291 297 297 297 296 298 298 298 298 298
298 299 301 301 302 302 302 302 302 302 303 303 302 301 301 300 300 299 299 299 298 298 298 298 298 297 297 295 295 295 295 294 294 290 288 292 297 298 298 298 298 297 298
298 298 299 299 300 300 301 302 301 301 302 301 301 300 300 299 299 297 296 295 295 295 295 296 297 297 296 296 296 295 294 292 292 292 290 291 292 294 297 297 296 297 297